When you browse on this site, cookies collect data to enhance your experience and personalize the content and advertising you see.
Visit our Privacy Policy to learn more. By continuing to use the site, you agree to this use of cookies and data.
  • In Hungary
  • List of Countries
  • For 7 days
  • Water Temperature
  • Weather Map
  • News
  • Weather Widgets
  • user-avatar
    Login

    Hourly Weather Vysoka

    Today, 18 September, Wednesday

    Time Temperature Precipitation Wind Pressure Humidity
    00:00 +7°C° 0.1 mm 3 mps 732 mmHg 91%
    01:00 +7°C° 0.1 mm 3 mps 732 mmHg 93%
    02:00 +7°C° 0.1 mm 2 mps 732 mmHg 95%
    03:00 +7°C° 0.3 mm 2 mps 732 mmHg 95%
    04:00 +7°C° 0.3 mm 2 mps 732 mmHg 95%
    05:00 +7°C° 0.3 mm 2 mps 732 mmHg 95%
    06:00 +7°C° 0.2 mm 2 mps 733 mmHg 94%
    07:00 +7°C° 0.2 mm 2 mps 733 mmHg 93%
    08:00 +7°C° 0.2 mm 2 mps 733 mmHg 92%
    09:00 +8°C° 0.1 mm 2 mps 733 mmHg 88%
    10:00 +9°C° 0.1 mm 2 mps 733 mmHg 83%
    11:00 +11°C° 0.1 mm 1 mps 733 mmHg 78%
    12:00 +10°C° 0.4 mm 2 mps 733 mmHg 77%
    13:00 +12°C° 0.4 mm 2 mps 733 mmHg 75%
    14:00 +12°C° 0.4 mm 2 mps 733 mmHg 73%
    15:00 +10°C° 0.4 mm 2 mps 733 mmHg 78%
    16:00 +10°C° 0.4 mm 2 mps 733 mmHg 83%
    17:00 +9°C° 0.4 mm 2 mps 733 mmHg 87%
    18:00 +8°C° 0 mm 2 mps 734 mmHg 90%
    19:00 +7°C° 0 mm 2 mps 734 mmHg 92%
    20:00 +6°C° 0 mm 2 mps 734 mmHg 95%
    21:00 +5°C° 0 mm 3 mps 735 mmHg 96%
    22:00 +4°C° 0 mm 3 mps 735 mmHg 96%
    23:00 +4°C° 0 mm 3 mps 735 mmHg 97%

    Tomorrow, 19 September, Thursday

    Time Temperature Precipitation Wind Pressure Humidity
    00:00 +4°C° 0 mm 3 mps 736 mmHg 96%
    01:00 +5°C° 0 mm 3 mps 736 mmHg 94%
    02:00 +5°C° 0 mm 3 mps 737 mmHg 93%
    03:00 +5°C° 0 mm 3 mps 737 mmHg 92%
    04:00 +5°C° 0 mm 3 mps 738 mmHg 92%
    05:00 +5°C° 0 mm 3 mps 738 mmHg 92%
    06:00 +5°C° 0 mm 4 mps 739 mmHg 89%
    07:00 +5°C° 0 mm 4 mps 740 mmHg 87%
    08:00 +5°C° 0 mm 4 mps 740 mmHg 85%
    09:00 +5°C° 0 mm 4 mps 741 mmHg 78%
    10:00 +5°C° 0 mm 4 mps 741 mmHg 72%
    11:00 +6°C° 0 mm 4 mps 741 mmHg 66%
    12:00 +7°C° 0 mm 3 mps 742 mmHg 63%
    13:00 +7°C° 0 mm 3 mps 742 mmHg 61%
    14:00 +7°C° 0 mm 3 mps 743 mmHg 58%
    15:00 +7°C° 0 mm 2 mps 743 mmHg 61%
    16:00 +7°C° 0 mm 2 mps 743 mmHg 64%
    17:00 +7°C° 0 mm 1 mps 743 mmHg 66%
    18:00 +6°C° 0 mm 1 mps 743 mmHg 70%
    19:00 +5°C° 0 mm 1 mps 744 mmHg 73%
    20:00 +4°C° 0 mm 1 mps 744 mmHg 77%
    21:00 +4°C° 0 mm 1 mps 744 mmHg 79%
    22:00 +3°C° 0 mm 1 mps 744 mmHg 81%
    23:00 +3°C° 0 mm 1 mps 744 mmHg 83%

    Day after tomorrow, 20 September, Friday

    Time Temperature Precipitation Wind Pressure Humidity
    00:00 +3°C° 0 mm 1 mps 744 mmHg 84%
    01:00 +3°C° 0 mm 1 mps 745 mmHg 85%
    02:00 +3°C° 0 mm 1 mps 745 mmHg 86%
    03:00 +3°C° 0 mm 1 mps 745 mmHg 87%
    04:00 +2°C° 0 mm 1 mps 745 mmHg 88%
    05:00 +2°C° 0 mm 1 mps 745 mmHg 90%
    06:00 +3°C° 0 mm 1 mps 745 mmHg 85%
    07:00 +5°C° 0 mm 1 mps 745 mmHg 80%
    08:00 +6°C° 0 mm 1 mps 745 mmHg 75%
    09:00 +7°C° 0.1 mm 1 mps 745 mmHg 70%
    10:00 +8°C° 0.1 mm 1 mps 745 mmHg 65%
    11:00 +9°C° 0.1 mm 1 mps 745 mmHg 61%
    12:00 +9°C° 0.3 mm 1 mps 746 mmHg 61%
    13:00 +8°C° 0.3 mm 2 mps 746 mmHg 61%
    14:00 +8°C° 0.3 mm 2 mps 746 mmHg 61%
    15:00 +8°C° 0.2 mm 2 mps 746 mmHg 66%
    16:00 +7°C° 0.2 mm 2 mps 746 mmHg 72%
    17:00 +7°C° 0.2 mm 1 mps 746 mmHg 77%
    18:00 +6°C° 0 mm 1 mps 746 mmHg 80%
    19:00 +4°C° 0 mm 1 mps 747 mmHg 83%
    20:00 +2°C° 0 mm 2 mps 747 mmHg 86%
    21:00 +2°C° 0 mm 2 mps 747 mmHg 88%
    22:00 +2°C° 0 mm 2 mps 748 mmHg 90%
    23:00 +1°C° 0 mm 2 mps 748 mmHg 92%

    21 September, Saturday

    Time Temperature Precipitation Wind Pressure Humidity
    00:00 +1°C° 0 mm 2 mps 748 mmHg 92%
    01:00 +1°C° 0 mm 2 mps 748 mmHg 92%
    02:00 -1°C° 0 mm 2 mps 748 mmHg 93%
    03:00 -1°C° 0 mm 2 mps 748 mmHg 92%
    04:00 -2°C° 0 mm 2 mps 748 mmHg 91%
    05:00 -2°C° 0 mm 2 mps 748 mmHg 91%
    06:00 -1°C° 0 mm 2 mps 748 mmHg 87%
    07:00 +2°C° 0 mm 2 mps 749 mmHg 83%
    08:00 +3°C° 0 mm 2 mps 749 mmHg 80%
    09:00 +4°C° 0 mm 2 mps 749 mmHg 73%
    10:00 +5°C° 0 mm 3 mps 748 mmHg 66%
    11:00 +7°C° 0 mm 3 mps 748 mmHg 60%
    12:00 +8°C° 0 mm 3 mps 748 mmHg 58%
    13:00 +7°C° 0 mm 4 mps 748 mmHg 56%
    14:00 +7°C° 0 mm 4 mps 747 mmHg 55%
    15:00 +7°C° 0 mm 3 mps 747 mmHg 59%
    16:00 +5°C° 0 mm 3 mps 746 mmHg 63%
    17:00 +4°C° 0 mm 3 mps 745 mmHg 68%
    18:00 +4°C° 0 mm 3 mps 745 mmHg 69%
    19:00 +3°C° 0 mm 3 mps 744 mmHg 71%
    20:00 +3°C° 0 mm 4 mps 743 mmHg 72%
    21:00 +3°C° 0.4 mm 4 mps 742 mmHg 79%
    22:00 +2°C° 0.4 mm 5 mps 740 mmHg 87%
    23:00 +2°C° 0.4 mm 5 mps 739 mmHg 94%

    22 September, Sunday

    Time Temperature Precipitation Wind Pressure Humidity
    00:00 +2°C° 1.2 mm 5 mps 738 mmHg 94%
    01:00 +3°C° 1.2 mm 5 mps 736 mmHg 95%
    02:00 +3°C° 1.2 mm 5 mps 735 mmHg 96%
    03:00 +4°C° 0.9 mm 6 mps 734 mmHg 95%
    04:00 +7°C° 0.9 mm 6 mps 733 mmHg 93%
    05:00 +8°C° 0.9 mm 6 mps 732 mmHg 92%
    06:00 +5°C° 0.1 mm 7 mps 732 mmHg 87%
    07:00 +4°C° 0.1 mm 8 mps 732 mmHg 82%
    08:00 +2°C° 0.1 mm 9 mps 732 mmHg 76%
    09:00 +2°C° 0.1 mm 10 mps 732 mmHg 77%
    10:00 +2°C° 0.1 mm 11 mps 733 mmHg 78%
    11:00 +2°C° 0.1 mm 11 mps 733 mmHg 79%
    12:00 +2°C° 0.2 mm 11 mps 733 mmHg 80%
    13:00 +2°C° 0.2 mm 12 mps 734 mmHg 81%
    14:00 +2°C° 0.2 mm 12 mps 734 mmHg 82%
    15:00 +1°C° 0.2 mm 11 mps 736 mmHg 84%
    16:00 0°C° 0.2 mm 10 mps 737 mmHg 86%
    17:00 0°C° 0.2 mm 10 mps 738 mmHg 88%
    18:00 0°C° 0.1 mm 9 mps 740 mmHg 87%
    19:00 0°C° 0.1 mm 8 mps 741 mmHg 86%
    20:00 0°C° 0.1 mm 7 mps 742 mmHg 85%
    21:00 0°C° 0 mm 7 mps 743 mmHg 86%
    22:00 +1°C° 0 mm 6 mps 744 mmHg 87%
    23:00 0°C° 0 mm 5 mps 744 mmHg 88%

    23 September, Monday

    Time Temperature Precipitation Wind Pressure Humidity
    00:00 0°C° 0 mm 5 mps 745 mmHg 91%
    01:00 -1°C° 0 mm 4 mps 745 mmHg 93%
    02:00 -1°C° 0 mm 4 mps 746 mmHg 95%
    03:00 -1°C° 0 mm 4 mps 747 mmHg 94%
    04:00 -1°C° 0 mm 4 mps 747 mmHg 93%
    05:00 -1°C° 0 mm 4 mps 747 mmHg 92%
    06:00 -1°C° 0 mm 4 mps 748 mmHg 91%
    07:00 -1°C° 0 mm 4 mps 748 mmHg 89%
    08:00 +1°C° 0 mm 3 mps 749 mmHg 88%
    09:00 +1°C° 0 mm 3 mps 749 mmHg 85%
    10:00 +2°C° 0 mm 3 mps 749 mmHg 81%
    11:00 +3°C° 0 mm 3 mps 749 mmHg 78%
    12:00 +3°C° 0 mm 3 mps 749 mmHg 75%
    13:00 +5°C° 0 mm 2 mps 749 mmHg 73%
    14:00 +5°C° 0 mm 2 mps 749 mmHg 70%
    15:00 +5°C° 0 mm 2 mps 749 mmHg 72%
    16:00 +4°C° 0 mm 2 mps 749 mmHg 73%
    17:00 +5°C° 0 mm 1 mps 749 mmHg 75%
    18:00 +4°C° 0 mm 1 mps 749 mmHg 79%
    19:00 +3°C° 0 mm 1 mps 749 mmHg 83%
    20:00 0°C° 0 mm 0 mps 750 mmHg 86%
    21:00 +1°C° 0 mm 1 mps 750 mmHg 87%
    22:00 +1°C° 0 mm 1 mps 750 mmHg 88%
    23:00 +1°C° 0 mm 1 mps 750 mmHg 89%
    Show more